Weather in Kartsevo

Russia / Pskov Oblast     56°29′27″N   30°36′59″E
temp.,
°C
wind,
m/s
gust,
m/s
humid.,
%
clouds,
%
prec.,
mm/h
press.,
hPa
HPBL,
m
4 march, thu
thu400:00+1wsw6148599 0.0 1009796
03:00+1w51187100 0.0 1007795
06:00+1w41094100 0.0 1004520
09:000wnw4798100 1.1 1003441
12:000nnw3488100 1.7 1003504
15:00+1nnw4663100 1.8 10031383
18:00−1nw387672 0.3 1004378
21:00−3nw398652 0.3 1006453
5 march, fri
fri500:00−4nnw488370 0.1 1007714
03:00−5nw268540 0.1 1009445
06:00−5w258430 0.0 1009302
09:00−4wsw247951 0.0 1010300
12:00−2sw2480100 0.1 1010560
15:00−1wsw2362100 0.9 1011884
18:00−4n51079100 2.0 10121128
21:00−5nnw3877100 2.1 1015697
6 march, sat
sat600:00−6nnw378592 0.1 1017460
03:00−6nnw378891 0.1 1018517
06:00−7nw378967 0.0 1019415
09:00−6nw378565 0.1 1020625
12:00−4wnw4667100 0.1 10201120
15:00−2wsw575581 0.1 10181202
18:00−2sw5115997 0.0 10151145
21:00−2sw6156998 0.0 10111297
7 march, sun
sun700:00−1wsw71666100 0.0 10071278
03:00−2wsw81688100 0.1 10021111
06:00−1wsw81694100 0.9 9971108
09:00−4nw71463100 2.1 9991911
12:00−3wnw8144458 0.1 10012834
15:00−2w7134647 0.1 10002408
18:00−3wsw5135718 0.0 9981491
21:00−4w7147838 0.0 9981170
8 march, mon
mon800:00−6nw7137492 0.1 10001310
03:00−8nw4107581 0.3 1005855
06:00−9nw498421 0.0 1007676
09:00−8nw587960 0.0 1009989
12:00−7nnw5774100 0.1 10111109
15:00−7nnw5870100 0.3 10131230
18:00−8nnw5975100 0.1 10151080
21:00−9n4979100 0.1 10181008